Location: Helsinki
(60.1699°N, 24.9384°E)
Time: 22:19:09
(UTC+03:00)

Tiros 1 despin weight - All Passes

Search period start: 02 October 2022 00:00
Search period end: 12 October 2022 00:00
Orbit: 590 x 638 km, 48.2° (Epoch: 02 October)

Date Brightness Start Highest point End Pass type
(mag) Time Alt. Az. Time Alt. Az. Time Alt. Az.
02 Oct - 18:05:30 10° S 18:06:49 11° SSE 18:08:07 10° SE daylight
02 Oct - 19:43:58 10° SW 19:47:02 18° S 19:50:07 10° SE visible
02 Oct - 21:24:33 10° SW 21:27:23 16° SSW 21:30:14 10° SSE visible
03 Oct - 18:19:16 10° SSW 18:21:41 14° SSE 18:24:06 10° SE daylight
03 Oct - 19:58:52 10° SW 20:01:59 18° S 20:05:08 10° SE visible
03 Oct - 21:40:02 10° SW 21:42:17 14° SSW 21:44:33 10° S visible
04 Oct - 18:33:43 10° SSW 18:36:36 17° SSE 18:39:28 10° SE daylight
04 Oct - 20:13:56 10° SW 20:16:56 17° S 20:19:58 10° SSE visible
04 Oct - 21:56:31 10° SW 21:57:08 10° SSW 21:57:46 10° SSW visible
05 Oct - 17:09:31 10° S 17:11:17 12° SSE 17:13:03 10° SE daylight
05 Oct - 18:48:28 10° SW 18:51:32 18° S 18:54:37 10° SE daylight
05 Oct - 20:29:13 10° SW 20:31:52 15° SSW 20:34:31 10° SSE visible
06 Oct - 17:23:35 10° SSW 17:26:09 15° SSE 17:28:44 10° SE daylight
06 Oct - 19:03:24 10° SW 19:06:29 18° S 19:09:34 10° SE daylight
06 Oct - 20:44:53 10° SW 20:46:45 12° SSW 20:48:37 10° S visible
07 Oct - 17:38:08 10° SSW 17:41:03 17° S 17:44:00 10° SE daylight
07 Oct - 19:18:32 10° SW 19:21:25 17° S 19:24:17 10° SSE visible
08 Oct - 16:13:39 10° S 16:15:42 13° SSE 16:17:48 10° SE daylight
08 Oct - 17:52:57 10° SW 17:56:00 18° S 17:59:04 10° SE daylight
08 Oct - 19:33:54 10° SW 19:36:18 14° SSW 19:38:43 10° SSE visible
09 Oct - 16:27:54 10° SSW 16:30:35 16° SSE 16:33:17 10° SE daylight
09 Oct - 18:07:56 10° SW 18:10:55 18° S 18:13:55 10° SE daylight
09 Oct - 19:49:51 10° SW 19:51:08 11° SSW 19:52:26 10° S visible
10 Oct - 15:04:09 10° SSE 15:05:17 11° SSE 15:06:24 10° SE daylight
10 Oct - 16:42:32 10° SW 16:45:30 17° S 16:48:28 10° SE daylight
10 Oct - 18:23:07 10° SW 18:25:50 16° SSW 18:28:33 10° SSE daylight
11 Oct - 15:17:49 10° SSW 15:20:06 14° SSE 15:22:24 10° SE daylight
11 Oct - 16:57:24 10° SW 17:00:24 18° S 17:03:26 10° SE daylight
11 Oct - 18:38:37 10° SW 18:40:41 13° SSW 18:42:47 10° S daylight
